Theta_e
303 306 305 306 306 312 313 315 324 331 335 333 332 333 333 335 336 337 338 337 337 336 334 333 331 330 329 329 329 329 329 328 329 329 329 329 331 332 334 335 334 334 335
301 303 303 304 303 304 308 312 315 321 332 337 337 336 336 337 338 339 339 339 338 338 335 334 332 332 330 329 329 330 327 329 329 327 324 323 327 328 328 331 331 332 333
299 300 303 303 302 302 303 309 312 315 323 335 333 331 332 332 332 334 337 339 340 340 338 336 335 333 333 329 330 330 329 327 327 330 328 322 321 323 326 327 328 330 330
301 304 305 306 306 305 304 303 310 314 318 327 333 333 334 333 335 334 337 336 339 340 340 337 336 336 335 333 331 331 331 331 327 329 330 328 326 322 320 325 325 326 328
301 302 304 305 307 307 306 304 304 313 317 322 334 334 333 335 333 330 332 333 334 338 340 338 337 336 336 336 335 332 332 332 330 330 326 326 325 323 322 321 323 325 326
301 301 303 304 304 306 307 308 306 304 316 321 330 334 334 332 327 329 330 331 334 337 340 340 339 339 338 336 335 335 334 332 331 328 329 329 325 323 322 320 321 320 324
299 299 300 301 303 304 306 308 309 308 310 319 325 334 335 335 329 331 329 331 333 335 339 339 339 338 339 338 337 336 334 332 330 329 328 328 327 325 325 323 320 320 321
297 299 301 302 303 305 306 308 309 309 309 312 321 328 334 335 331 330 330 331 334 337 340 340 340 340 339 338 338 336 336 332 332 329 329 328 326 326 326 324 322 317 318
298 300 302 303 304 305 306 308 309 310 311 309 318 324 329 332 331 329 332 333 336 337 339 340 339 339 339 339 338 336 333 333 330 330 329 328 326 326 326 324 324 323 316
299 299 301 303 305 306 307 309 310 309 310 314 315 323 327 330 328 329 332 333 336 338 338 339 339 338 339 338 337 335 332 331 329 329 327 326 326 326 326 324 323 322 321
298 300 301 307 306 307 308 309 311 311 311 316 315 322 325 327 327 329 332 335 336 338 338 339 338 338 336 336 335 334 331 329 328 328 327 326 326 326 326 325 324 323 322
300 301 303 308 307 308 309 309 312 314 313 314 316 322 325 327 328 330 333 335 336 339 339 339 338 336 335 335 334 331 331 328 327 326 327 326 326 326 326 325 324 324 323
301 303 306 305 303 304 306 308 313 322 319 316 320 322 326 328 329 331 334 336 337 338 339 338 337 335 335 334 333 331 329 329 328 327 326 326 326 325 325 325 324 324 323
304 304 303 303 303 303 306 309 314 323 320 318 321 325 327 330 331 333 334 336 337 337 338 337 337 336 335 333 329 329 328 328 328 327 327 326 325 325 325 325 325 324 323
303 304 302 303 302 303 306 307 317 324 322 321 323 326 330 332 334 334 335 336 337 338 337 336 335 334 333 330 328 328 329 327 326 325 325 325 324 321 322 325 325 323 322
301 302 303 303 303 304 304 307 318 323 331 328 326 331 333 334 335 336 336 336 336 336 335 334 333 331 331 310 313 323 327 326 325 323 323 323 319 316 312 312 315 322 322
299 300 301 303 304 304 305 306 319 326 332 331 332 333 334 333 334 335 335 334 334 333 332 331 331 328 326 306 308 312 327 326 326 323 321 321 322 320 321 311 311 313 312
300 300 301 301 303 304 307 309 318 323 331 332 332 333 333 332 333 334 333 333 330 330 330 329 328 325 318 304 303 308 326 324 323 322 321 322 323 322 322 319 321 323 320
301 301 302 302 303 303 306 308 317 321 328 331 331 332 332 331 332 331 328 328 327 327 326 325 322 321 315 299 300 316 324 322 321 321 321 322 322 308 304 320 321 319 316
301 301 302 302 302 304 305 307 316 320 321 330 331 331 330 330 329 327 326 326 327 324 323 320 321 312 313 298 301 315 323 321 320 320 318 305 315 300 301 323 320 317 315
301 303 302 301 302 304 305 310 319 319 322 328 331 330 329 327 326 325 325 324 323 321 319 317 317 317 313 308 301 305 325 322 321 320 319 317 300 298 299 307 321 316 315
300 301 300 300 302 304 306 311 316 322 324 324 326 329 327 326 326 324 324 322 320 317 316 315 313 315 315 305 301 301 306 313 322 319 319 311 297 296 297 307 297 300 309
299 300 299 299 301 305 307 312 318 322 323 324 327 325 326 326 325 324 322 321 320 317 316 315 313 314 315 311 299 298 297 302 318 319 310 297 295 295 299 297 299 303 317
300 301 299 298 299 305 307 315 322 322 321 319 321 325 323 323 324 324 323 322 320 320 318 317 315 316 316 315 311 308 308 303 307 303 306 304 303 303 302 305 310 316 317
301 301 299 299 300 305 307 317 322 322 321 319 324 323 323 322 314 306 314 323 321 320 321 319 318 316 316 317 309 310 315 316 309 309 313 314 312 311 313 315 315 315 317
299 298 299 300 301 305 311 315 322 320 320 323 322 322 321 318 315 314 309 294 297 299 302 304 314 317 306 299 298 299 299 297 299 314 315 314 313 312 314 314 314 314 312
Wind_Speed
5 4 5 7 7 8 9 11 4 7 4 4 5 4 8 8 8 10 12 11 9 10 10 6 7 8 8 7 7 4 5 5 2 2 1 3 4 6 5 4 4 5 5
4 4 7 6 7 7 10 10 9 5 7 6 5 5 7 7 8 6 7 10 10 11 10 9 9 9 6 7 8 7 3 3 5 3 2 3 1 1 2 2 4 6 4
1 5 5 6 7 9 8 10 10 9 6 8 2 1 2 3 3 4 5 11 12 11 11 10 8 9 8 7 9 10 8 5 3 4 3 1 3 1 2 2 2 3 2
7 3 8 6 7 8 9 9 10 10 9 7 7 11 11 11 9 5 6 5 10 10 11 10 10 9 7 7 9 8 7 5 5 2 3 0 2 3 1 1 2 2 3
8 10 11 9 11 7 8 10 9 10 10 8 10 10 12 11 6 4 7 7 7 9 10 10 10 9 7 8 9 9 7 5 4 3 3 1 0 2 2 2 2 1 1
8 9 10 10 11 10 10 9 10 9 10 10 12 15 16 13 6 6 6 5 4 4 7 9 8 8 8 9 9 9 9 8 4 3 4 4 4 3 3 2 3 2 2
9 11 14 15 14 15 16 12 11 13 10 11 12 14 18 16 15 11 8 7 4 3 8 8 8 7 8 9 9 8 8 9 6 6 4 2 3 3 3 2 1 2 1
6 11 16 16 16 17 18 17 13 16 12 10 14 13 17 12 11 11 7 7 7 7 8 9 8 8 8 7 7 6 6 7 6 7 4 3 4 3 3 3 3 1 1
8 14 16 18 18 17 17 18 16 19 15 14 13 15 14 15 12 11 11 9 7 7 9 10 10 9 8 8 7 6 7 7 6 5 5 3 3 3 3 3 2 3 2
10 14 19 18 18 20 16 17 17 19 17 17 14 13 14 14 12 10 11 11 9 10 11 11 10 9 8 8 7 5 6 8 5 4 6 4 3 4 3 3 3 2 3
9 16 19 19 17 18 16 17 19 18 16 15 17 14 13 13 10 11 10 10 9 11 12 12 11 10 9 8 8 7 9 8 7 5 6 6 5 4 4 3 3 3 3
7 16 19 19 19 18 16 19 19 17 15 15 16 15 11 11 13 11 10 10 11 11 12 11 11 11 10 9 10 9 8 9 8 7 7 6 4 5 5 4 5 3 4
8 14 15 18 18 19 20 20 20 17 13 14 13 11 12 13 14 11 10 11 12 11 11 12 13 11 11 11 9 9 9 8 7 8 7 6 7 5 4 4 4 3 3
8 10 12 18 18 20 22 23 23 20 14 15 14 14 14 14 12 12 12 13 12 13 12 12 12 12 11 10 8 8 7 7 7 6 6 6 7 6 6 4 5 4 4
11 12 13 15 19 22 24 25 23 20 10 14 14 15 14 12 13 13 13 12 12 11 12 13 11 11 11 8 9 8 8 8 7 5 4 4 6 6 6 4 5 6 5
11 12 16 20 19 23 25 26 23 17 8 11 12 13 13 13 15 15 14 13 12 12 13 13 13 11 7 14 13 10 8 7 7 6 5 4 6 6 7 6 5 7 7
13 15 15 17 12 19 26 25 19 12 5 9 11 14 15 15 15 14 13 13 13 13 13 12 12 11 8 14 14 12 7 7 6 6 6 5 3 5 5 3 3 6 7
10 14 15 15 18 20 16 18 15 14 1 9 9 11 14 15 13 13 12 12 12 13 13 11 10 10 6 12 13 11 7 6 6 6 7 6 6 5 5 4 4 5 3
10 14 17 16 20 22 20 16 13 8 4 7 7 8 11 13 13 13 13 11 12 11 10 10 10 10 7 9 13 10 7 7 6 5 5 5 4 5 7 5 5 4 3
9 15 17 17 17 18 16 14 13 7 9 3 7 7 9 13 14 13 13 9 11 10 9 8 7 9 8 7 12 10 6 7 5 5 5 4 2 8 9 5 5 5 3
11 13 14 14 17 15 13 12 10 3 4 9 7 7 8 12 12 11 12 10 11 10 10 10 7 9 7 7 9 11 6 6 5 4 3 2 4 8 8 6 6 5 7
12 11 12 14 16 15 12 12 7 3 1 3 1 8 8 9 10 14 11 11 12 11 10 10 8 5 6 7 7 7 8 9 6 5 3 4 6 8 7 5 9 12 9
12 7 11 15 17 14 12 13 8 1 3 2 3 9 8 10 11 13 12 10 10 10 9 8 7 6 4 4 8 7 9 8 5 4 6 9 8 9 6 11 11 9 5
12 11 12 14 15 13 15 13 7 3 4 5 8 5 8 10 10 8 9 9 9 9 8 7 7 5 4 4 4 4 5 9 7 9 5 5 7 7 8 7 4 4 4
10 10 11 13 15 15 14 12 5 4 2 3 11 9 8 10 10 8 4 8 5 9 9 7 8 8 6 5 7 8 6 5 6 8 4 4 3 5 5 4 4 4 5
11 11 13 11 14 13 11 10 4 4 7 11 12 11 9 8 9 9 8 18 11 11 9 12 9 4 10 12 11 11 11 14 13 4 4 3 5 6 6 5 4 3 5
Wind_Direction
266 275 297 308 317 311 320 313 266 233 203 180 170 189 213 219 222 216 213 201 185 186 188 191 179 185 190 189 180 158 172 216 171 102 341 276 245 237 234 243 256 262 260
254 293 322 320 311 296 299 300 298 251 216 206 222 193 188 215 230 221 200 186 186 186 187 187 191 186 181 171 170 177 168 181 183 140 106 280 317 263 235 255 258 260 258
334 295 307 308 308 303 284 277 282 281 233 217 133 73 96 117 144 208 200 206 191 178 192 192 184 180 181 180 179 190 181 160 187 185 154 175 230 316 2 346 284 270 258
317 229 297 299 292 292 298 272 272 274 274 226 203 214 224 217 212 206 212 187 173 185 189 186 190 185 177 174 186 187 190 135 163 157 216 159 144 181 324 275 255 268 233
294 302 313 302 300 285 274 287 266 263 264 254 225 224 233 232 218 157 156 183 186 186 188 185 187 181 179 177 178 172 166 167 152 155 147 125 110 64 134 237 278 289 267
293 300 297 301 300 300 290 277 279 259 254 247 236 231 233 227 202 166 175 182 164 164 188 188 188 186 180 174 178 175 166 176 160 152 160 158 161 185 164 208 239 252 296
307 309 315 318 312 308 307 299 284 277 254 234 237 224 229 226 213 206 172 163 148 171 203 181 184 189 184 175 171 162 161 169 166 168 175 155 164 151 155 155 173 233 306
304 313 315 309 303 303 300 296 283 281 274 246 238 228 228 224 219 206 179 171 173 189 172 186 187 186 174 170 167 158 159 163 153 169 163 162 176 170 164 162 156 150 285
305 318 321 310 301 294 290 283 279 278 270 253 237 233 225 222 212 204 185 171 168 163 169 177 178 170 160 166 160 153 159 147 148 162 160 158 178 190 183 163 162 154 191
310 318 318 300 286 285 282 272 271 270 266 261 233 225 220 216 202 185 180 171 164 158 159 173 167 159 158 167 151 148 152 142 145 146 162 167 167 179 177 171 170 165 159
308 314 324 317 297 288 281 276 276 269 264 251 238 222 209 197 185 188 182 171 150 160 170 168 161 161 157 170 143 160 150 141 141 148 172 181 173 179 177 170 163 179 164
299 331 338 320 320 309 296 297 286 267 253 247 226 215 198 175 177 177 171 154 164 170 162 159 157 154 163 153 155 155 151 146 163 169 169 182 168 182 181 185 181 191 186
287 337 343 313 316 315 306 303 289 288 257 228 199 186 180 178 177 164 162 159 163 159 154 154 160 161 162 155 158 152 155 158 167 170 175 172 175 188 178 187 185 195 177
283 315 325 305 317 318 315 310 303 292 243 203 185 182 176 178 167 162 160 167 158 154 156 161 157 162 157 154 152 142 147 161 170 172 175 170 185 189 190 191 199 189 176
312 320 318 307 313 327 318 314 300 294 212 191 178 180 171 167 151 159 159 149 148 154 154 150 153 156 152 150 145 149 159 165 162 167 161 175 186 186 184 172 187 179 174
319 330 319 312 327 320 313 296 289 291 191 163 168 156 153 153 154 158 149 144 146 146 149 155 153 153 149 153 149 149 161 165 157 154 160 158 145 147 158 194 202 178 173
326 332 312 303 293 287 294 294 285 313 161 127 150 143 146 149 149 142 140 144 148 146 155 152 149 148 145 153 154 152 158 158 155 148 155 160 164 158 152 123 172 180 177
323 317 296 307 293 273 240 262 325 337 98 121 140 133 140 137 133 136 141 144 148 150 147 144 145 137 137 161 158 144 131 128 139 158 171 168 171 182 163 148 149 168 150
315 308 305 307 303 307 318 320 321 327 10 111 117 130 132 133 138 144 143 144 134 135 135 140 132 136 142 150 146 134 132 134 152 164 160 167 166 175 164 164 174 146 126
304 311 307 306 300 305 306 314 324 326 12 41 123 129 145 141 143 141 140 128 132 131 127 112 124 128 135 139 145 132 132 142 150 142 136 87 172 154 171 175 163 165 158
303 300 298 300 299 303 308 314 329 313 22 49 118 132 142 139 132 136 123 124 124 117 110 108 101 107 126 145 151 133 142 147 157 151 159 131 138 160 180 179 170 163 138
292 290 298 301 303 307 313 315 302 231 196 355 74 129 132 133 139 128 121 118 115 113 113 110 101 97 106 110 141 123 117 153 161 165 154 127 133 161 158 123 124 121 125
291 294 302 306 308 306 305 307 322 69 77 31 46 111 140 148 132 130 120 116 118 123 122 127 126 123 115 105 110 97 125 134 128 137 128 116 129 129 104 126 132 138 135
286 293 293 300 302 302 303 303 295 151 69 59 89 118 136 126 120 113 122 127 128 132 134 128 130 124 119 126 138 124 112 101 93 107 114 121 111 95 113 121 134 119 142
269 276 290 290 290 293 295 306 339 84 14 254 132 124 155 119 94 67 75 127 109 147 144 147 144 143 159 178 156 149 149 139 131 121 122 117 114 121 134 125 125 130 146
277 284 274 267 277 289 287 301 282 6 322 120 127 158 135 127 122 119 85 45 59 88 105 129 146 140 126 135 143 146 140 132 144 124 138 128 142 146 148 144 145 151 158